Location: Unspecified
(48.2082°N, 0.0000°E)
Time: 09:45:42
(UTC+00:00)

Transit 4A - Pass Details

Date: 22 June 2019
Orbit: 862 x 982 km, 66.8° (Epoch: 23 July)

Event Time Altitude Azimuth Distance (km) Brightness Sun altitude
Rises 16:12:46 0° 325° (NW) 3,696 11.4 35.2°
Reaches altitude 10° 16:15:24 10° 328° (NNW) 2,740 10.8 34.8°
Maximum altitude 16:21:48 69° 52° (NE) 1,037 8.5 33.7°
Drops below altitude 10° 16:28:03 10° 135° (SE) 2,671 10.0 32.7°
Sets 16:30:34 0° 138° (SE) 3,596 10.6 32.3°
